OpenBCM V1.08-5-g2f4a (Linux)

Packet Radio Mailbox

IZ3LSV

[San Dona' di P. JN]

 Login: GUEST





  
CX2SA  > KEP      18.03.20 16:56l 86 Lines 3608 Bytes #999 (0) @ ARL
BID : ARLK022
Read: GUEST
Subj: ARLK022 Keplerian data
Path: IZ3LSV<IQ2LB<IK1NHL<CX2SA
Sent: 200317/2324Z @:CX2SA.SAL.URY.SOAM #:26847 [Salto] FBB7.00e $:ARLK022
From: CX2SA@CX2SA.SAL.URY.SOAM
To  : KEP@ARL


ZCZC SK22
QST de W1AW
Keplerian Bulletin 22  ARLK022
From ARRL Headquarters
Newington, CT  March 17, 2020
To all radio amateurs

SB KEP ARL ARLK022
ARLK022 Keplerian data

Special thanks to AMSAT-NA (AMSAT.ORG) for the following Keplerian
data.

Decode 2-line elsets with the following key:
1 AAAAAU 00  0  0 BBBBB.BBBBBBBB  .CCCCCCCC  00000-0  00000-0 0  DDDZ
2 AAAAA EEE.EEEE FFF.FFFF GGGGGGG HHH.HHHH III.IIII JJ.JJJJJJJJKKKKKZ
KEY: A-CATALOGNUM B-EPOCHTIME C-DECAY D-ELSETNUM E-INCLINATION F-RAAN
G-ECCENTRICITY H-ARGPERIGEE I-MNANOM J-MNMOTION K-ORBITNUM Z-CHECKSUM

0 AO-07
1 7530U 74089B   20077.56182359 -.00000019 +00000-0 +16322-3 0  9996
2 7530 101.7891 047.8556 0012123 179.5174 305.3767 12.53642548074475
0 FO-29
1 24278U 96046B   20077.40288990 -.00000004 +00000-0 +35198-4 0  9999
2 24278 098.5701 199.3462 0349328 253.1932 103.0620 13.53096534164432
0 ISS
1 25544U 98067A   20077.81685939  .00000637  00000-0  19616-4 0  9998
2 25544  51.6443  80.5500 0006183  36.1599  23.8222 15.49250410217857
0 SO-50
1 27607U 02058C   20077.33453584 -.00000021 +00000-0 +17698-4 0  9997
2 27607 064.5546 296.0164 0059394 200.7195 159.1500 14.75616094927132
0 CO-55
1 27844U 03031E   20077.55301891 +.00000041 +00000-0 +38343-4 0  9990
2 27844 098.6847 086.6645 0009152 327.2474 032.8135 14.22226151867032
0 RS-22
1 27939U 03042A   20077.57039211 +.00000123 +00000-0 +30614-4 0  9997
2 27939 098.0739 213.6920 0011516 285.6911 074.3027 14.66842954880544
0 RS-30
1 32953U 08025A   20077.48458897  .00000037  00000-0  19437-3 0  9993
2 32953  82.5069 335.1147 0018103 255.5199 104.3874 12.43094546536208
0 KKS-1
1 33499U 09002H   20077.56393418 +.00000067 +00000-0 +17930-4 0  9991
2 33499 098.3285 289.6712 0010250 061.6635 298.5606 14.75512147599034
0 AO-71
1 37854U 11061E   20077.15533255 +.00000897 +00000-0 +53139-4 0  9990
2 37854 101.7083 120.7884 0158790 336.3118 023.0839 15.07070930457579
0 AO-73
1 39444U 13066AE  20077.54503059 +.00000198 +00000-0 +30636-4 0  9997
2 39444 097.5596 082.8647 0057190 210.6266 149.1605 14.82079109339751
0 UKUBE 1
1 40074U 14037F   20077.54736554 +.00000218 +00000-0 +33220-4 0  9990
2 40074 098.4529 260.4114 0005477 062.6786 297.4993 14.84211738308126
0 XW-2A
1 40903U 15049E   20077.61282940 +.00001734 +00000-0 +41596-4 0  9997
2 40903 097.3003 126.4540 0011724 231.2352 249.6197 15.42742975252312
0 XW-2F
1 40910U 15049M   20077.60254810 +.00001014 +00000-0 +53473-4 0  9997
2 40910 097.4688 082.4440 0013591 327.0061 155.6250 15.17767183248406
0 XW-2B
1 40911U 15049N   20077.55902500 +.00000482 +00000-0 +28468-4 0  9992
2 40911 097.4761 080.6569 0013444 338.1577 139.0301 15.16111387248246
0 IO-86
1 40931U 15052B   20077.49197252  .00000678  00000-0  52654-5 0  9993
2 40931   5.9961 271.2559 0013249  55.3737 304.7768 14.76628550241645
0 CAS-4B
1 42759U 17034B   20077.46294914  .00000202  00000-0  25793-4 0  9991
2 42759  43.0179 172.4572 0010527 178.1424 282.2110 15.09764554152069
0 CAS-4A
1 42761U 17034D   20077.47972634  .00000085  00000-0  18609-4 0  9994
2 42761  43.0182 171.7235 0010971 178.8047 289.9159 15.09841740152065
0 AO-91
1 43017U 17073E   20077.50761500 +.00000788 +00000-0 +66768-4 0  9993
2 43017 097.7258 353.2781 0257183 350.2604 009.3673 14.78840156125572
0 AO-92
1 43137U 18004AC  20077.43266048 +.00000889 +00000-0 +39722-4 0  9992
2 43137 097.4543 149.1886 0009817 028.8828 331.2951 15.23939851121037

Keplerian bulletins are transmitted twice weekly from W1AW.  The
next scheduled transmission of these data will be Friday, March 20,
2020, at 2330z on Baudot and BPSK31.
NNNN


Read previous mail | Read next mail


 14.10.2025 05:02:39lGo back Go up